Weather Roundup
Issued by NWS Chicago, IL

Home | Current Version | Previous Version | Graphics & Text | Print | Product List | Glossary On
Versions: 1 2 3 4 5 6 7 8 9 10 11 12 13 14 15 16 17 18 19 20 21 22 23 24 25 26 27 28 29 30 31 32 33 34 35 36 37 38 39 40 41 42 43 44 45 46 47 48 49 50
000
NZUS59 KLOT 050008
HRRLOT

CHICAGO AREA WEATHER ROUNDUP
NATIONAL WEATHER SERVICE CHICAGO/ROMEOVILLE IL
700 PM CDT MON MAY 04 2015

NOTE: "FAIR" INDICATES FEW OR NO CLOUDS BELOW 12,000 FEET WITH NO
SIGNIFICANT WEATHER AND/OR OBSTRUCTIONS TO VISIBILITY.

* THESE STATIONS ARE NOT UNDER NWS QUALITY CONTROL. THEY ALSO MAY NOT
  REPORT WEATHER SUCH AS PRECIPITATION OR FOG.

ILZ005-006-012>014-019>023-050100-
NORTHEAST ILLINOIS

CITY           SKY/WX    TMP DP  RH WIND       PRES   REMARKS
OHARE          MOCLDY    62  46  55 NE9       30.15R
6HR MIN TEMP:  62; 6HR MAX TEMP:  74; 6HR PCP: TRACE;

MIDWAY         MOCLDY    62  53  72 NE10      30.15R
6HR MIN TEMP:  62; 6HR MAX TEMP:  74;

AURORA         PTCLDY    69  56  62 E17       30.12R
6HR MIN TEMP:  68; 6HR MAX TEMP:  75;

LANSING*       MOCLDY    62  53  72 NE8       30.14S
JOLIET*        PTCLDY    68  58  71 E12       30.13R
WAUKEGAN       PTCLDY    52  40  63 NE9       30.17R
6HR MIN TEMP:  52; 6HR MAX TEMP:  69;

DUPAGE AIRPORT PTCLDY    65  53  65 E15       30.13R
6HR MIN TEMP:  65; 6HR MAX TEMP:  72;

WHEELING       PTCLDY    58  47  66 E8        30.17S
6HR MIN TEMP:  58; 6HR MAX TEMP:  75;

KANKAKEE*      MOCLDY    69  63  81 E9        30.13R
MORRIS*        PTCLDY    73  60  64 E8        30.09S
LEWIS AIRPORT* PTCLDY    65  55  70 E13       30.13R
NORTHERLY IS     N/A     51  48  89 N8          N/A
$$

WIZ051-052-058>065-066-070>072-050100-
SOUTHEAST WISCONSIN

CITY           SKY/WX    TMP DP  RH WIND       PRES   REMARKS
MILWAUKEE      MOCLDY    55  38  52 E5        30.17R
6HR MIN TEMP:  55; 6HR MAX TEMP:  66;

KENOSHA*       MOCLDY    58  39  49 E8        30.17R
RACINE*        PTCLDY    54  38  54 NE8       30.18S
BURLINGTON     PTCLDY    61  35  39 E8        30.16S
WAUKESHA       CLEAR     59  37  44 E12       30.18R
WEST BEND      MOCLDY    59  34  38 E9        30.18R
$$

INZ001>003-010>013-019-020-050100-
NORTHWEST INDIANA

CITY           SKY/WX    TMP DP  RH WIND       PRES   REMARKS
GARY*          MOCLDY    61 N/A N/A E9        30.15S
MICHIGAN CITY* NOT AVBL
RENSSELAER*    NOT AVBL
VALPARAISO     MOCLDY    67  58  72 NE5       30.14S
$$

LMZ740>746-050100-
SOUTHERN LAKE MICHIGAN

STATION/POSITION TIME  SKY/WX   TEMP WIND        PRES    VSBY
                                AIR  DIR/SP/G
                 (UTC)          (F)  (DEG/KT/KT) (MB)    (MI)
HARRISON CRIB    2300            50   10/  9/ 11   N/A
BURNHAM HARBOR   0000            51  340/  5/  8   N/A
CALUMET HARBOR   2300            53   40/  3/  5   N/A
BURNS HARBOR     2300            54   80/ 11/ 13 1021.0S
MICHIGAN CITY    2300            54   40/ 13/ 14   N/A
$$

ABBREVIATIONS USED IN REMARKS
   TC - TEMPERATURE IN CELSIUS
  WCI - WIND CHILL INDEX
   HX - HEAT INDEX
  VSB - VISIBILITY
$$



USA.gov is the U.S. government's official web portal to all federal, state and local government web resources and services.